sat.trackr.live / text

‹ back to catalog

YAOGAN-43 03A

NORAD 61617 · 2024-190A

PAYLOAD ACTIVE UNKNOWN

§ Identity

Operator
Country
PRC
Launch date
2024-10-23
Launch site
XICLF
Launch vehicle
Mass (kg)
RCS (m²)

External: N2YO · Heavens-Above · Gunter

§ Orbital elements

Epoch: 2026-05-24T23:24:35.161344Z

Period
94.55 min
Inclination
34.9912°
Eccentricity
0.0004058
Mean motion
15.23026646 rev/d
Perigee alt
493.9 km
Apogee alt
499.5 km
Semi-major
6,874.9 km
B*
2.7561e-4
RAAN
343.7242°
Arg perigee
124.6257°
Mean anomaly
235.4840°
Rev number
8,832

§ Raw data

YAOGAN-43 03A1 61617U 24190A   26144.97540696  .00006615  00000+0  27561-3 0  99912 61617  34.9912 343.7242 0004058 124.6257 235.4840 15.23026646 88322

JSON: /api/v1/satellites/61617 · /tle

For live sub-satellite position, see the globe view (requires WebGL).

§ Visibility from observer

Set your observer location to see the next 7 days of passes ≥ 10°. The values pass through the URL so the page stays shareable.

No JS? Fill the form by hand. The geolocation button needs JavaScript.